Regional Weather Roundup
Issued by NWS Wakefield, VA

Home | Current Version | Previous Version | Text Only | Print | Product List | Glossary Off
Versions: 1 2 3 4 5 6 7 8 9 10 11 12 13 14 15 16 17 18 19 20 21 22 23 24 25 26

000
ASUS41 KAKQ 280615
RWRAKQ

REGIONAL WEATHER ROUNDUP
NATIONAL WEATHER SERVICE WAKEFIELD VA
200 AM EDT SUN AUG 28 2016

Note: "fair" indicates few or no clouds below 12,000 feet with no
significant weather and/or obstructions to visibility. * = Denotes
station may not report precipitation (e.g., rain,snow,etc.),
thunder or fog.

VAZ042-051-052>054-056-280700-
NORTHERN VIRGINIA

CITY           SKY/WX    TMP DP  RH WIND       PRES   REMARKS
WASH NATIONAL  PTCLDY    76  69  79 S5        30.19F
DULLES         CLEAR     70  64  81 CALM      30.19F
FORT BELVOIR   CLEAR     68  66  94 CALM      30.18F
QUANTICO       CLEAR     77  69  76 CALM      30.18F
FREDERICKSBRG* CLEAR     69  69 100 CALM      30.17F
STAFFORD*      CLEAR     65  64  97 CALM      30.22F FOG
WARRENTON      HAZE      65  60  85 CALM      30.18F VSB 1/2
CULPEPER*      CLEAR     68  68 100 CALM      30.20S FOG
MANASSAS*      CLEAR     68  66  94 CALM      30.18F
LEESBURG*      CLEAR     70  70 100 W3        30.21S
WINCHESTER     CLEAR     68  64  88 CALM      30.20S
FRONT ROYAL*   FAIR      68  66  94 CALM      30.19S
LURAY*         FAIR     N/A N/A N/A W3        30.21S
$$

VAZ048-049-060>072-079>083-280700-
CENTRAL AND SOUTH CENTRAL VIRGINIA

CITY           SKY/WX    TMP DP  RH WIND       PRES   REMARKS
RICHMOND       CLEAR     71  67  87 CALM      30.17F
CHESTERFIELD*  FAIR      68  54  60 CALM      30.19F
PETERSBURG*    CLEAR    N/A N/A N/A CALM      30.18F
HANOVER        CLEAR     67  64  90 CALM      30.20S
TAPPAHANNOCK*  CLEAR     67  67 100 CALM      30.19S FOG
QUINTON*       FAIR      68  67  97 W5        30.17F
CHARLOTTSVILLE CLEAR     72  68  87 CALM      30.20F
GORDONSVILLE*  FAIR      66  66 100 CALM      30.19F
ORANGE*          N/A     68  68 100 CALM      30.21F
LOUISA*        FOG       68  66  94 CALM      30.18F VSB 1/4
BUMPASS*       FAIR      66  66  98 CALM      30.18F
FARMVILLE*     CLEAR    N/A N/A N/A CALM      30.18S
CREWE*         FAIR      66  66 100 CALM      30.18F
FORT PICKETT*  NOT AVBL
CHASE CITY*    FAIR      73  67  81 CALM      30.18S
CLARKSVILLE*   FAIR      73  68  83 CALM      30.18R
SOUTH HILL*    CLEAR     70  65  85 CALM      30.23F
LAWRENCEVILLE* FAIR      70  67  90 CALM      30.17F
EMPORIA*       CLEAR     70  68  94 CALM      30.18S
$$

VAZ088>098-280700-
SOUTHEAST VIRGINIA

CITY           SKY/WX    TMP DP  RH WIND       PRES   REMARKS
NORFOLK        PTCLDY    77  75  93 NE10      30.15F
VIRGINIA BEACH MOCLDY    83  74  74 E6        30.14F
NORFOLK NAVAL  MOCLDY    79  74  84 E9        30.17S
WEST POINT*    CLEAR     66  65  96 E3        30.18F
SALUDA*        MOCLDY    78  75  92 E9        30.17S
NEWPORT NEWS   PTCLDY    77  74  90 E9        30.16F
LANGLEY AFB    PTCLDY    78  75  89 E14       30.15S
FORT EUSTIS    CLEAR     75  73  92 E3        30.14S
WILLIAMSBURG*  CLEAR     73  73 100 CALM      30.17F
HR EXEC AP*    FAIR      75  72  88 NE7       30.18S
FRANKLIN*      CLEAR     67  66  96 CALM      30.16S
US460-WAKEFLD  PTCLDY    68  66  93 CALM      30.17S
$$

VAZ020-022-025-037-045-280700-
WEST CENTRAL AND SOUTHWEST VIRGINIA

CITY           SKY/WX    TMP DP  RH WIND       PRES   REMARKS
STAUNTON*      CLEAR     67  66  96 CALM      30.24F
WAYNESBORO*    FAIR      70  65  83 CALM      30.24F
HOT SPRINGS VA CLOUDY    68  68 100 SE3       30.34F
LYNCHBURG      CLEAR     70  65  84 CALM      30.23S
DANVILLE       PTCLDY    72  69  90 CALM      30.19S
SOUTH BOSTON*  FAIR      71  69  95 CALM      30.19R
MARTINSVILLE   MOCLDY    71  70  97 CALM      30.24R FOG
ROANOKE        MOCLDY    77  67  71 SE5       30.24F
BLACKSBURG     CLEAR     72  67  85 CALM      30.30S
DUBLIN*        MOCLDY    70  69  96 CALM      30.28F
MARION*        MOCLDY    72  68  89 E5        30.31S
HILLSVILLE*    PTCLDY    71  69  95 E6        30.29S
RICHLANDS*     FAIR      75  69  82 E6        30.27S
WISE*          PTCLDY    73  59  60 S3        30.27F
ABINGDON*      CLOUDY    76  72  85 E7        30.23F
$$

MDZ021>025-VAZ099-100-280700-
SOUTHERN MARYLAND AND THE DELMARVA PENINSULA

CITY           SKY/WX    TMP DP  RH WIND       PRES   REMARKS
PATUXENT RIVER CLEAR     76  72  87 E12       30.17F
BAY BRIDGE APT CLEAR     75  70  83 E6        30.19S
LEONARDTOWN    CLEAR     73  70  88 E3        30.19F
DOVER          CLEAR     74  74 100 E9        30.18F
GEORGETOWN     NOT AVBL
EASTON         CLEAR     72  72 100 E3        30.22F
CAMBRIDGE      CLEAR     68  68 100 CALM      30.18F
SALISBURY      CLEAR     71  70  96 NE5       30.18F
OCEAN CITY     CLEAR     76  72  87 E6        30.18F
WALLOPS ISLAND CLEAR     77  65  66 E13       30.18F
ACCOMACK*      CLEAR     74  71  91 NE7       30.17F
$$

NCZ012>017-030>032-280700-
NORTH CENTRAL AND EASTERN NORTH CAROLINA

CITY           SKY/WX    TMP DP  RH WIND       PRES   REMARKS
ROANOKE RAPIDS FAIR      68  66  94 CALM      30.16S
RALEIGH        MOCLDY    75  70  84 NE5       30.17R
ELIZABETH CITY PTCLDY    77  75  93 NE9       30.14F
AHOSKIE*       CLEAR     70  68  94 CALM      30.16S
EDENTON*       CLEAR    N/A N/A N/A CALM      30.14F
CURRITUCK*       N/A     79  76  90 NE9G17    30.14F
KILL DEVIL HLS PTCLDY    78  78  99 NE5       30.11F
MANTEO         PTCLDY    78  76  95 NE8       30.13F
CAPE HATTERAS  CLOUDY    80  76  87 NE7       30.11F
TARBORO*       FAIR      71  70  98 CALM      30.16S
GOLDSBORO      CLEAR     76  76 100 CALM      30.12F
WASHINGTON     CLEAR     74  73  96 NE3       30.14S
GREENVILLE     CLEAR     72  72 100 CALM      30.15S FOG
NEW BERN       CLOUDY    78  75  90 NE6       30.13F
WILMINGTON     CLEAR     76  74  93 CALM      30.11S
$$

VAZ048-280700-
ELSEWHERE

CITY           SKY/WX    TMP DP  RH WIND       PRES   REMARKS
HARRISBURG PA  CLEAR     73  69  87 E8        30.20S
BALTIMORE      CLEAR     73  68  84 E5        30.19F
ANNAPOLIS      CLEAR     77  72  84 E7        30.18F
ANDREWS AFB    CLEAR     69  66  91 E5        30.18F
PHILADELPHIA   PTCLDY    71  68  90 E5        30.21F
HENDERSON NC   CLEAR     69  65  85 CALM      30.19R
GREENSBORO     PTCLDY    75  73  93 E5        30.18S
ROCKY MOUNT    CLEAR     72  71  97 CALM      30.15F
$$

VAZ100-280700-
MARINE

STATION/POSITION TIME  TEMP    WIND        PRES    WAVE   SWELL
                       AIR SEA DIR/SP/G            HT/PER HT/PER
                 (UTC) (F)     (DEG/KT/KT) (MB)    (FT/S) (FT/S)
CAPE MAY NJ      0500   74 74   70/  4/  7 1022.3F
LEWES DE         0500   74 75  100/  6/  8 1022.5F
OCEAN-CITY-INLET 0500   76 75   70/  5/  8 1022.7F
WACHAPREAGUE VA  0500   77 84   50/  8/ 12 1021.8F
THOMAS POINT MD  0600   76 83  110/ 12/ 13 1023.3F
GOOSES REEF MD   0600   77 83  120/ 16/ 17 1022.5F   1/ 3
COVE POINT MD    0500   76     130/ 13/ 15 1022.8F
SOLOMONS ISLAND  0500   77 84   90/ 11/ 13   N/A
PINEY POINT MD   0500          100/  9/ 11   N/A
POTOMAC MD       0600   79 83   90/ 14/ 16 1020.7F   1/ 3
CAMBRIDGE MD     0500   75 85  100/  7/ 10 1021.7F
LEWISETTA VA     0500   79 85   90/ 14/ 16 1021.4F
RAPPAHANNOCK LGT 0500           60/ 10/ 12 1022.4F
STINGRAY PT      0600   79 83   30/ 14/ 17 1021.8F   2/ 3
YORK RVR RNG VA  0500   79      70/ 15/ 17 1021.0F
YORKTOWN VA      0500   79 83   80/ 15/ 17 1021.2F
JAMESTOWN VA     0600   76 85   60/  4/  6   N/A     0
DOMINION TERM VA 0500   79      70/ 11/ 15 1021.4F
KIPTOPEKE VA     0500      81   60/  7/ 11   N/A
CHES BAY BRIDGE  0500   78 80   40/ 13/ 15 1021.1F
CAPE HENRY VA    0500   78      50/ 11/ 12   N/A
WILLOUBY STN VA  0500   79      50/ 14/ 16   N/A
CAPE HENRY BUOY  0512      80                N/A     3/ 5
1ST LANDING BUOY 0600   78 78   80/ 12/ 14 1020.8F   2/ 3
CAPE CHARLES BUO 0526      79                N/A     3/ 9
OFFSHORE WE BUOY 0521      80                N/A     4/ 5
64NM E OF VA BCH 0550   81 81   50/ 17/ 19 1019.8F   4/ 5   2/ 8
DUCK PIER NC     0500   80 79   30/ 15/ 17 1019.9R
44100 DUCK FRF   0505      80                N/A     4/ 5
44056 DUCK FRF   0511      79                N/A     4/ 5
OREGON INLET NC  0500   79 79   20/  8/ 12 1020.1F
HATTERAS NC      0500   79 84  110/  7/ 11 1019.8R
DIAMOND SHLS NC  0550   77 84  330/ 12/ 16 1019.5F   3/ 9   3/ 9
CAPE LOOKOUT NC  0600   82      50/ 11/ 12 1019.1F
$$




USA.gov is the U.S. government's official web portal to all federal, state and local government web resources and services.